Regional Weather Roundup
Issued by NWS

Home | Current Version | Previous Version | Graphics & Text | Print | Product List | Glossary On
Versions: 1 2 3 4 5 6 7 8 9 10 11 12 13 14 15 16 17 18 19 20 21 22 23 24 25 26 27 28 29 30 31 32 33 34 35 36 37 38 39 40 41 42 43 44 45 46 47 48 49 50
766
ASUS45 KSLC 270510
RWRUT

UTAH REGIONAL WEATHER ROUNDUP
NATIONAL WEATHER SERVICE SALT LAKE CITY UT
1100 PM MDT THU MAY 26 2016

UTZ001>011-023>025-270600-

NORTHERN UTAH

CITY           SKY/WX    TMP DP  RH WIND       PRES   REMARKS
BRIGHAM CITY     N/A     56  44  62 CALM      29.96R
HILL AFB       CLEAR     53  40  62 E9        29.96S
LOGAN          CLEAR     52  42  69 E3        29.96R
OGDEN          CLEAR     54  41  61 S6        29.95S
PROVO AIRPORT  CLEAR     52  36  54 SE6       29.98R
SALT LAKE CITY PTCLDY    56  40  55 SW6       29.95R
VERNAL         CLOUDY    50  37  61 S6        29.93R
WENDOVER       PTCLDY    61  36  39 NW18      29.98S
HEBER CITY     PTCLDY    43  36  75 CALM      30.01R
WEST JORDAN    CLEAR     54  39  58 CALM      29.98R

$$

UTZ012>022-026-027-270600-

SOUTHERN/CENTRAL UTAH

CITY           SKY/WX    TMP DP  RH WIND       PRES   REMARKS
BLANDING       PTCLDY    52  33  47 W6        30.04R
BRYCE CANYON   PTCLDY    41  33  73 NW10      30.10R
CEDAR CITY     PTCLDY    49  39  68 SE6       30.03F
DELTA          CLEAR     48  39  71 S7        29.99R
HANKSVILLE     PTCLDY    55  32  41 CALM      29.95S
MILFORD        MOCLDY    54  41  61 S7        30.00S
MOAB/CYNLANDS  MOCLDY    55  30  38 W6        29.90S
PRICE          CLEAR     49  31  49 NW7       29.98R
ST GEORGE      PTCLDY    64  39  39 E10       29.94F
KANAB          CLEAR     52  37  58 N6        30.04R

$$

REGIONAL REPORTS     COLORADO/ARIZONA

CITY           SKY/WX    TMP DP  RH WIND       PRES   REMARKS
CRAIG, CO      CLOUDY    47  38  71 S7        29.96R
GRAND JUNCTION CLOUDY    53  36  52 N6        29.91S
RIFLE          CLOUDY    53  36  52 E8        29.94S
MONTROSE       LGT RAIN  50  40  68 SE7       29.99S
CORTEZ         CLOUDY    46  34  62 CALM      29.98R
PAGE, AZ       MOCLDY    63  35  35 CALM      29.96R
GRAND CANYON   CLEAR     39  28  64 E3        30.09R
KINGMAN        CLEAR     63  28  26 S10       29.95R
FLAGSTAFF      CLEAR     39  29  67 CALM      30.10R

$$

REGIONAL REPORTS    NEVADA/IDAHO/WYOMING

CITY           SKY/WX    TMP DP  RH WIND       PRES   REMARKS
LAS VEGAS, NV  PTCLDY    78  30  17 SW8       29.82R
ELY            MOCLDY    48  34  58 W7        30.08R
ELKO           PTCLDY    51  41  68 CALM      30.04S
POCATELLO, ID  CLEAR     54  38  54 S9        29.95R
BURLEY         CLEAR     57  37  47 W12       29.94S
EVANSTON, WY   CLOUDY    43  35  73 S7        30.05S
ROCK SPRINGS   LGT RAIN  48  37  65 N14G20    30.01R
KEMMERER         N/A     43  34  70 NW8       30.04S

$$




USA.gov is the U.S. government's official web portal to all federal, state and local government web resources and services.